Time,TemperatureF,DewpointF,PressureIn,WindDirection,WindDirectionDegrees,WindSpeedMPH,WindSpeedGustMPH,Humidity,HourlyPrecipIn,Conditions,Clouds,dailyrainin,SoftwareType,DateUTC
2013-01-21 00:02:00,19.9,12.3,30.24,WSW,255,6.0,7.0,72,0.00,,,0.00,Wunderground v.1.15,2013-01-21 05:02:00,
2013-01-21 00:03:00,19.8,12.2,30.24,West,261,6.0,11.0,72,0.00,,,0.00,Wunderground v.1.15,2013-01-21 05:03:00,
2013-01-21 00:06:00,19.8,11.9,30.25,SW,217,6.0,11.0,71,0.00,,,0.00,Wunderground v.1.15,2013-01-21 05:06:00,
2013-01-21 00:09:00,19.8,12.2,30.25,SSW,210,6.0,11.0,72,0.00,,,0.00,Wunderground v.1.15,2013-01-21 05:09:00,
2013-01-21 00:15:00,19.8,12.2,30.24,SW,221,6.0,7.0,72,0.00,,,0.00,Wunderground v.1.15,2013-01-21 05:15:00,
2013-01-21 00:20:00,19.7,12.1,30.24,WSW,242,6.0,6.0,72,0.00,,,0.00,Wunderground v.1.15,2013-01-21 05:20:00,
2013-01-21 00:25:00,19.7,12.4,30.24,WSW,240,6.0,6.0,73,0.00,,,0.00,Wunderground v.1.15,2013-01-21 05:25:00,
2013-01-21 00:30:00,19.6,12.3,30.24,WSW,238,6.0,7.0,73,0.00,,,0.00,Wunderground v.1.15,2013-01-21 05:30:00,
2013-01-21 00:36:00,19.5,12.9,30.24,WSW,242,8.0,16.0,75,0.00,,,0.00,Wunderground v.1.15,2013-01-21 05:36:00,
2013-01-21 00:42:00,19.4,12.8,30.24,WSW,246,6.0,6.0,75,0.00,,,0.00,Wunderground v.1.15,2013-01-21 05:42:00,
2013-01-21 00:48:00,19.4,13.1,30.23,West,269,5.0,6.0,76,0.00,,,0.00,Wunderground v.1.15,2013-01-21 05:48:00,
2013-01-21 00:54:00,19.4,13.1,30.23,SW,236,4.0,6.0,76,0.00,,,0.00,Wunderground v.1.15,2013-01-21 05:54:00,
2013-01-21 01:00:00,19.4,13.4,30.23,SW,224,5.0,5.0,77,0.00,,,0.00,Wunderground v.1.15,2013-01-21 06:00:00,
2013-01-21 01:05:00,19.3,13.3,30.23,WSW,244,4.0,13.0,77,0.00,,,0.00,Wunderground v.1.15,2013-01-21 06:05:00,
2013-01-21 01:11:00,19.2,13.2,30.23,West,263,4.0,13.0,77,0.00,,,0.00,Wunderground v.1.15,2013-01-21 06:11:00,
2013-01-21 01:16:00,19.2,13.2,30.22,WSW,239,4.0,13.0,77,0.00,,,0.00,Wunderground v.1.15,2013-01-21 06:16:00,
2013-01-21 01:22:00,19.1,13.1,30.22,West,269,4.0,13.0,77,0.00,,,0.00,Wunderground v.1.15,2013-01-21 06:22:00,
2013-01-21 01:28:00,19.1,12.8,30.22,WSW,241,4.0,13.0,76,0.00,,,0.00,Wunderground v.1.15,2013-01-21 06:28:00,
2013-01-21 01:34:00,19.2,12.9,30.22,SW,221,5.0,13.0,76,0.00,,,0.00,Wunderground v.1.15,2013-01-21 06:34:00,
2013-01-21 01:39:00,19.2,12.6,30.22,SW,223,5.0,13.0,75,0.00,,,0.00,Wunderground v.1.15,2013-01-21 06:39:00,
2013-01-21 01:45:00,19.3,12.7,30.22,SW,234,5.0,13.0,75,0.00,,,0.00,Wunderground v.1.15,2013-01-21 06:45:00,
2013-01-21 01:51:00,19.2,12.3,30.22,WSW,237,5.0,13.0,74,0.00,,,0.00,Wunderground v.1.15,2013-01-21 06:51:00,
2013-01-21 01:56:00,19.2,12.3,30.22,West,269,5.0,13.0,74,0.00,,,0.00,Wunderground v.1.15,2013-01-21 06:56:00,
2013-01-21 02:01:00,19.0,12.4,30.22,SW,227,5.0,13.0,75,0.00,,,0.00,Wunderground v.1.15,2013-01-21 07:01:00,
2013-01-21 02:06:00,19.0,12.7,30.22,SSW,205,5.0,13.0,76,0.00,,,0.00,Wunderground v.1.15,2013-01-21 07:06:00,
2013-01-21 02:11:00,18.9,12.6,30.22,WSW,237,4.0,13.0,76,0.00,,,0.00,Wunderground v.1.15,2013-01-21 07:11:00,
2013-01-21 02:18:00,18.8,12.5,30.22,SW,218,4.0,13.0,76,0.00,,,0.00,Wunderground v.1.15,2013-01-21 07:18:00,
2013-01-21 02:23:00,18.7,12.4,30.22,SW,219,4.0,13.0,76,0.00,,,0.00,Wunderground v.1.15,2013-01-21 07:23:00,
2013-01-21 02:31:00,18.6,12.6,30.22,SW,220,4.0,13.0,77,0.00,,,0.00,Wunderground v.1.15,2013-01-21 07:31:00,
2013-01-21 02:36:00,18.4,12.7,30.22,WSW,252,6.0,13.0,78,0.00,,,0.00,Wunderground v.1.15,2013-01-21 07:36:00,
2013-01-21 02:41:00,18.3,12.9,30.22,West,265,6.0,13.0,79,0.00,,,0.00,Wunderground v.1.15,2013-01-21 07:41:00,
2013-01-21 02:47:00,18.2,12.8,30.23,SSW,209,5.0,13.0,79,0.00,,,0.00,Wunderground v.1.15,2013-01-21 07:47:00,
2013-01-21 02:53:00,18.1,12.7,30.22,WSW,241,7.0,13.0,79,0.00,,,0.00,Wunderground v.1.15,2013-01-21 07:53:00,
2013-01-21 02:58:00,18.0,12.9,30.22,SW,232,6.0,13.0,80,0.00,,,0.00,Wunderground v.1.15,2013-01-21 07:58:00,
2013-01-21 03:03:00,18.0,12.9,30.22,SW,233,4.0,13.0,80,0.00,,,0.00,Wunderground v.1.15,2013-01-21 08:03:00,
2013-01-21 03:09:00,18.0,12.6,30.22,SW,226,4.0,13.0,79,0.00,,,0.00,Wunderground v.1.15,2013-01-21 08:09:00,
2013-01-21 03:15:00,18.0,12.3,30.22,South,190,5.0,13.0,78,0.00,,,0.00,Wunderground v.1.15,2013-01-21 08:15:00,
2013-01-21 03:22:00,18.0,12.6,30.21,South,182,3.0,13.0,79,0.00,,,0.00,Wunderground v.1.15,2013-01-21 08:22:00,
2013-01-21 03:28:00,17.9,12.5,30.21,WSW,252,4.0,13.0,79,0.00,,,0.00,Wunderground v.1.15,2013-01-21 08:28:00,
2013-01-21 03:33:00,17.9,12.2,30.21,SW,219,4.0,13.0,78,0.00,,,0.00,Wunderground v.1.15,2013-01-21 08:33:00,
2013-01-21 03:38:00,17.9,12.2,30.21,SW,232,4.0,13.0,78,0.00,,,0.00,Wunderground v.1.15,2013-01-21 08:38:00,
2013-01-21 03:44:00,18.0,12.3,30.21,WSW,246,5.0,13.0,78,0.00,,,0.00,Wunderground v.1.15,2013-01-21 08:44:00,
2013-01-21 03:50:00,18.0,12.3,30.21,SW,226,4.0,13.0,78,0.00,,,0.00,Wunderground v.1.15,2013-01-21 08:50:00,
2013-01-21 03:56:00,18.0,12.0,30.21,WSW,238,4.0,13.0,77,0.00,,,0.00,Wunderground v.1.15,2013-01-21 08:56:00,
2013-01-21 04:02:00,18.0,12.0,30.21,SW,228,4.0,13.0,77,0.00,,,0.00,Wunderground v.1.15,2013-01-21 09:02:00,
2013-01-21 04:07:00,18.0,12.0,30.21,WSW,237,5.0,13.0,77,0.00,,,0.00,Wunderground v.1.15,2013-01-21 09:07:00,
2013-01-21 04:13:00,17.9,11.6,30.20,WSW,252,5.0,13.0,76,0.00,,,0.00,Wunderground v.1.15,2013-01-21 09:13:00,
2013-01-21 04:19:00,17.8,11.5,30.20,SW,216,5.0,13.0,76,0.00,,,0.00,Wunderground v.1.15,2013-01-21 09:19:00,
2013-01-21 04:25:00,17.8,11.5,30.20,West,259,5.0,13.0,76,0.00,,,0.00,Wunderground v.1.15,2013-01-21 09:25:00,
2013-01-21 04:30:00,17.7,11.4,30.20,SW,236,6.0,6.0,76,0.00,,,0.00,Wunderground v.1.15,2013-01-21 09:30:00,
2013-01-21 04:35:00,17.7,11.4,30.19,WSW,257,6.0,13.0,76,0.00,,,0.00,Wunderground v.1.15,2013-01-21 09:35:00,
2013-01-21 04:41:00,17.8,11.5,30.19,SW,234,5.0,13.0,76,0.00,,,0.00,Wunderground v.1.15,2013-01-21 09:41:00,
2013-01-21 04:47:00,17.7,11.4,30.19,South,190,6.0,13.0,76,0.00,,,0.00,Wunderground v.1.15,2013-01-21 09:47:00,
2013-01-21 04:53:00,17.7,11.4,30.19,SW,232,4.0,13.0,76,0.00,,,0.00,Wunderground v.1.15,2013-01-21 09:53:00,
2013-01-21 04:59:00,17.7,11.4,30.19,WSW,242,4.0,13.0,76,0.00,,,0.00,Wunderground v.1.15,2013-01-21 09:59:00,
2013-01-21 05:05:00,17.7,11.4,30.19,WSW,253,4.0,13.0,76,0.00,,,0.00,Wunderground v.1.15,2013-01-21 10:05:00,
2013-01-21 05:10:00,17.7,11.4,30.19,SW,219,4.0,13.0,76,0.00,,,0.00,Wunderground v.1.15,2013-01-21 10:10:00,
2013-01-21 05:16:00,17.6,11.3,30.19,West,259,5.0,13.0,76,0.00,,,0.00,Wunderground v.1.15,2013-01-21 10:16:00,
2013-01-21 05:23:00,17.6,11.6,30.19,SW,229,4.0,13.0,77,0.00,,,0.00,Wunderground v.1.15,2013-01-21 10:23:00,
2013-01-21 05:28:00,17.6,11.6,30.19,WSW,241,2.0,13.0,77,0.00,,,0.00,Wunderground v.1.15,2013-01-21 10:28:00,
2013-01-21 05:33:00,17.6,11.6,30.19,SW,223,3.0,13.0,77,0.00,,,0.00,Wunderground v.1.15,2013-01-21 10:33:00,
2013-01-21 05:39:00,17.5,11.5,30.19,West,259,5.0,13.0,77,0.00,,,0.00,Wunderground v.1.15,2013-01-21 10:39:00,
2013-01-21 05:45:00,17.5,11.5,30.18,West,261,4.0,13.0,77,0.00,,,0.00,Wunderground v.1.15,2013-01-21 10:45:00,
2013-01-21 05:50:00,17.5,11.2,30.18,SW,232,4.0,13.0,76,0.00,,,0.00,Wunderground v.1.15,2013-01-21 10:50:00,
2013-01-21 05:56:00,17.5,11.5,30.18,WSW,246,4.0,13.0,77,0.00,,,0.00,Wunderground v.1.15,2013-01-21 10:56:00,
2013-01-21 06:01:00,17.5,11.5,30.18,SW,236,3.0,3.0,77,0.00,,,0.00,Wunderground v.1.15,2013-01-21 11:01:00,
2013-01-21 06:06:00,17.5,11.2,30.18,SSW,205,2.0,3.0,76,0.00,,,0.00,Wunderground v.1.15,2013-01-21 11:06:00,
2013-01-21 06:11:00,17.6,11.3,30.18,WSW,252,3.0,5.0,76,0.00,,,0.00,Wunderground v.1.15,2013-01-21 11:11:00,
2013-01-21 06:19:00,17.6,11.0,30.18,SSW,207,3.0,5.0,75,0.00,,,0.00,Wunderground v.1.15,2013-01-21 11:19:00,
2013-01-21 06:25:00,17.6,11.0,30.17,WSW,254,3.0,5.0,75,0.00,,,0.00,Wunderground v.1.15,2013-01-21 11:25:00,
2013-01-21 06:31:00,17.6,11.0,30.17,SW,220,3.0,4.0,75,0.00,,,0.00,Wunderground v.1.15,2013-01-21 11:31:00,
2013-01-21 06:37:00,17.6,11.0,30.17,WSW,248,4.0,4.0,75,0.00,,,0.00,Wunderground v.1.15,2013-01-21 11:37:00,
2013-01-21 06:43:00,17.5,10.9,30.17,SW,232,4.0,6.0,75,0.00,,,0.00,Wunderground v.1.15,2013-01-21 11:43:00,
2013-01-21 06:48:00,17.6,11.0,30.17,SW,221,4.0,6.0,75,0.00,,,0.00,Wunderground v.1.15,2013-01-21 11:48:00,
2013-01-21 06:53:00,17.5,10.6,30.17,SW,227,4.0,8.0,74,0.00,,,0.00,Wunderground v.1.15,2013-01-21 11:53:00,
2013-01-21 06:59:00,17.5,10.6,30.17,SW,217,4.0,8.0,74,0.00,,,0.00,Wunderground v.1.15,2013-01-21 11:59:00,
2013-01-21 07:06:00,17.5,10.6,30.17,SW,224,5.0,11.0,74,0.00,,,0.00,Wunderground v.1.15,2013-01-21 12:06:00,
2013-01-21 07:11:00,17.4,10.2,30.17,WSW,238,5.0,11.0,73,0.00,,,0.00,Wunderground v.1.15,2013-01-21 12:11:00,
2013-01-21 07:16:00,17.4,10.2,30.17,SW,226,5.0,11.0,73,0.00,,,0.00,Wunderground v.1.15,2013-01-21 12:16:00,
2013-01-21 07:21:00,17.4,10.2,30.16,SSW,209,3.0,11.0,73,0.00,,,0.00,Wunderground v.1.15,2013-01-21 12:21:00,
2013-01-21 07:27:00,17.4,10.2,30.17,SW,217,3.0,11.0,73,0.00,,,0.00,Wunderground v.1.15,2013-01-21 12:27:00,
2013-01-21 07:32:00,17.3,10.1,30.17,SW,222,5.0,11.0,73,0.00,,,0.00,Wunderground v.1.15,2013-01-21 12:32:00,
2013-01-21 07:38:00,17.3,10.1,30.17,SSW,210,4.0,11.0,73,0.00,,,0.00,Wunderground v.1.15,2013-01-21 12:38:00,
2013-01-21 07:44:00,17.3,9.8,30.16,SW,215,4.0,11.0,72,0.00,,,0.00,Wunderground v.1.15,2013-01-21 12:44:00,
2013-01-21 07:50:00,17.3,9.8,30.16,SSW,193,4.0,11.0,72,0.00,,,0.00,Wunderground v.1.15,2013-01-21 12:50:00,
2013-01-21 07:55:00,17.3,9.8,30.16,SW,229,5.0,11.0,72,0.00,,,0.00,Wunderground v.1.15,2013-01-21 12:55:00,
2013-01-21 08:01:00,17.3,9.5,30.16,SSW,211,5.0,11.0,71,0.00,,,0.00,Wunderground v.1.15,2013-01-21 13:01:00,
2013-01-21 08:07:00,17.3,9.5,30.16,SSW,207,3.0,11.0,71,0.00,,,0.00,Wunderground v.1.15,2013-01-21 13:07:00,
2013-01-21 08:12:00,17.2,9.4,30.16,SW,234,4.0,11.0,71,0.00,,,0.00,Wunderground v.1.15,2013-01-21 13:12:00,
2013-01-21 08:18:00,17.3,9.8,30.16,WSW,237,4.0,11.0,72,0.00,,,0.00,Wunderground v.1.15,2013-01-21 13:18:00,
2013-01-21 08:23:00,17.3,9.8,30.16,SSW,203,4.0,11.0,72,0.00,,,0.00,Wunderground v.1.15,2013-01-21 13:23:00,
2013-01-21 08:29:00,17.3,9.8,30.16,SSW,193,4.0,11.0,72,0.00,,,0.00,Wunderground v.1.15,2013-01-21 13:29:00,
2013-01-21 08:35:00,17.3,9.5,30.16,SW,229,4.0,11.0,71,0.00,,,0.00,Wunderground v.1.15,2013-01-21 13:35:00,
2013-01-21 08:40:00,17.4,9.6,30.16,SSW,207,5.0,11.0,71,0.00,,,0.00,Wunderground v.1.15,2013-01-21 13:40:00,
2013-01-21 08:46:00,17.4,9.3,30.16,WSW,244,5.0,11.0,70,0.00,,,0.00,Wunderground v.1.15,2013-01-21 13:46:00,
2013-01-21 08:52:00,17.5,9.7,30.15,WSW,255,6.0,11.0,71,0.00,,,0.00,Wunderground v.1.15,2013-01-21 13:52:00,
2013-01-21 08:58:00,17.5,9.1,30.15,West,261,5.0,11.0,69,0.00,,,0.00,Wunderground v.1.15,2013-01-21 13:58:00,
2013-01-21 09:03:00,17.5,9.1,30.16,SSW,193,5.0,9.0,69,0.00,,,0.00,Wunderground v.1.15,2013-01-21 14:03:00,
2013-01-21 09:08:00,17.5,8.7,30.16,SW,231,5.0,9.0,68,0.00,,,0.00,Wunderground v.1.15,2013-01-21 14:08:00,
2013-01-21 09:14:00,17.6,8.8,30.15,SW,229,5.0,9.0,68,0.00,,,0.00,Wunderground v.1.15,2013-01-21 14:14:00,
2013-01-21 09:20:00,17.6,8.8,30.15,SW,225,5.0,7.0,68,0.00,,,0.00,Wunderground v.1.15,2013-01-21 14:20:00,
2013-01-21 09:26:00,17.7,8.9,30.15,SSW,198,5.0,11.0,68,0.00,,,0.00,Wunderground v.1.15,2013-01-21 14:26:00,
2013-01-21 09:32:00,17.8,9.0,30.15,SW,233,6.0,7.0,68,0.00,,,0.00,Wunderground v.1.15,2013-01-21 14:32:00,
2013-01-21 09:38:00,17.9,9.1,30.15,SSW,197,6.0,8.0,68,0.00,,,0.00,Wunderground v.1.15,2013-01-21 14:38:00,
2013-01-21 09:44:00,17.9,9.1,30.16,SW,223,6.0,12.0,68,0.00,,,0.00,Wunderground v.1.15,2013-01-21 14:44:00,
2013-01-21 09:49:00,17.9,8.8,30.16,SSW,192,7.0,12.0,67,0.00,,,0.00,Wunderground v.1.15,2013-01-21 14:49:00,
2013-01-21 09:55:00,17.9,8.8,30.15,WSW,257,7.0,9.0,67,0.00,,,0.00,Wunderground v.1.15,2013-01-21 14:55:00,
2013-01-21 10:01:00,17.9,8.5,30.15,SW,221,7.0,12.0,66,0.00,,,0.00,Wunderground v.1.15,2013-01-21 15:01:00,
2013-01-21 10:06:00,17.9,8.1,30.15,SSW,211,7.0,12.0,65,0.00,,,0.00,Wunderground v.1.15,2013-01-21 15:06:00,
2013-01-21 10:12:00,18.0,8.5,30.15,SW,223,7.0,12.0,66,0.00,,,0.00,Wunderground v.1.15,2013-01-21 15:12:00,
2013-01-21 10:18:00,18.1,9.0,30.15,West,261,6.0,12.0,67,0.00,,,0.00,Wunderground v.1.15,2013-01-21 15:18:00,
2013-01-21 10:24:00,18.2,9.1,30.14,WSW,241,5.0,12.0,67,0.00,,,0.00,Wunderground v.1.15,2013-01-21 15:24:00,
2013-01-21 10:29:00,18.2,9.1,30.14,West,267,6.0,6.0,67,0.00,,,0.00,Wunderground v.1.15,2013-01-21 15:29:00,
2013-01-21 10:35:00,18.2,9.1,30.14,WSW,253,6.0,12.0,67,0.00,,,0.00,Wunderground v.1.15,2013-01-21 15:35:00,
2013-01-21 10:41:00,18.3,9.5,30.14,SSW,211,6.0,9.0,68,0.00,,,0.00,Wunderground v.1.15,2013-01-21 15:41:00,
2013-01-21 10:47:00,18.4,9.3,30.14,SW,215,6.0,12.0,67,0.00,,,0.00,Wunderground v.1.15,2013-01-21 15:47:00,
2013-01-21 10:52:00,18.3,9.2,30.14,West,265,8.0,12.0,67,0.00,,,0.00,Wunderground v.1.15,2013-01-21 15:52:00,
2013-01-21 10:58:00,18.4,9.6,30.13,SW,220,7.0,12.0,68,0.00,,,0.00,Wunderground v.1.15,2013-01-21 15:58:00,
2013-01-21 11:04:00,18.5,9.4,30.13,WSW,255,5.0,12.0,67,0.00,,,0.00,Wunderground v.1.15,2013-01-21 16:04:00,
2013-01-21 11:09:00,18.5,8.7,30.13,SW,235,7.0,12.0,65,0.00,,,0.00,Wunderground v.1.15,2013-01-21 16:09:00,
2013-01-21 11:15:00,18.6,8.8,30.12,WSW,250,9.0,12.0,65,0.00,,,0.00,Wunderground v.1.15,2013-01-21 16:15:00,
2013-01-21 11:21:00,18.9,8.7,30.12,WSW,252,7.0,12.0,64,0.00,,,0.00,Wunderground v.1.15,2013-01-21 16:21:00,
2013-01-21 11:27:00,19.3,8.8,30.11,WSW,240,6.0,12.0,63,0.00,,,0.00,Wunderground v.1.15,2013-01-21 16:27:00,
2013-01-21 11:32:00,19.4,8.8,30.11,WSW,254,8.0,12.0,63,0.00,,,0.00,Wunderground v.1.15,2013-01-21 16:32:00,
2013-01-21 11:38:00,19.3,9.1,30.11,WSW,248,9.0,14.0,64,0.00,,,0.00,Wunderground v.1.15,2013-01-21 16:38:00,
2013-01-21 11:44:00,19.2,9.4,30.11,SW,235,8.0,12.0,65,0.00,,,0.00,Wunderground v.1.15,2013-01-21 16:44:00,
2013-01-21 11:50:00,19.3,9.8,30.10,SW,223,7.0,12.0,66,0.00,,,0.00,Wunderground v.1.15,2013-01-21 16:50:00,
2013-01-21 11:55:00,19.1,9.9,30.10,West,261,8.0,12.0,67,0.00,,,0.00,Wunderground v.1.15,2013-01-21 16:55:00,
2013-01-21 12:00:00,19.1,10.3,30.10,WSW,253,8.0,13.0,68,0.00,,,0.00,Wunderground v.1.15,2013-01-21 17:00:00,
2013-01-21 12:06:00,19.0,10.8,30.10,West,260,9.0,13.0,70,0.00,,,0.00,Wunderground v.1.15,2013-01-21 17:06:00,
2013-01-21 12:12:00,19.0,12.1,30.09,SW,233,8.0,10.0,74,0.00,,,0.00,Wunderground v.1.15,2013-01-21 17:12:00,
2013-01-21 12:18:00,18.6,12.3,30.09,SSW,198,8.0,10.0,76,0.00,,,0.00,Wunderground v.1.15,2013-01-21 17:18:00,
2013-01-21 12:24:00,18.4,13.0,30.08,SW,236,8.0,10.0,79,0.00,,,0.00,Wunderground v.1.15,2013-01-21 17:24:00,
2013-01-21 12:29:00,18.5,12.8,30.08,WNW,285,6.0,6.0,78,0.00,,,0.00,Wunderground v.1.15,2013-01-21 17:29:00,
2013-01-21 12:35:00,18.6,12.3,30.08,SSW,209,5.0,9.0,76,0.00,,,0.00,Wunderground v.1.15,2013-01-21 17:35:00,
2013-01-21 12:41:00,19.0,12.7,30.07,West,270,6.0,10.0,76,0.00,,,0.00,Wunderground v.1.15,2013-01-21 17:41:00,
2013-01-21 12:46:00,19.1,11.2,30.06,South,180,10.0,19.0,71,0.00,,,0.00,Wunderground v.1.15,2013-01-21 17:46:00,
2013-01-21 12:52:00,19.5,12.3,30.06,WSW,249,11.0,11.0,73,0.00,,,0.00,Wunderground v.1.15,2013-01-21 17:52:00,
2013-01-21 12:58:00,19.8,11.6,30.06,SW,236,9.0,16.0,70,0.00,,,0.00,Wunderground v.1.15,2013-01-21 17:58:00,
2013-01-21 13:04:00,19.7,10.2,30.06,SW,234,12.0,18.0,66,0.00,,,0.00,Wunderground v.1.15,2013-01-21 18:04:00,
2013-01-21 13:10:00,20.0,10.1,30.07,West,267,12.0,12.0,65,0.00,,,0.00,Wunderground v.1.15,2013-01-21 18:10:00,
2013-01-21 13:16:00,20.3,9.0,30.07,WSW,242,11.0,18.0,61,0.00,,,0.00,Wunderground v.1.15,2013-01-21 18:16:00,
2013-01-21 13:21:00,20.2,8.5,30.07,SW,222,11.0,18.0,60,0.00,,,0.00,Wunderground v.1.15,2013-01-21 18:21:00,
2013-01-21 13:27:00,20.2,8.1,30.07,WSW,239,10.0,18.0,59,0.00,,,0.00,Wunderground v.1.15,2013-01-21 18:27:00,
2013-01-21 13:33:00,20.0,8.0,30.07,SW,215,10.0,18.0,59,0.00,,,0.00,Wunderground v.1.15,2013-01-21 18:33:00,
2013-01-21 13:38:00,19.9,8.2,30.07,West,270,10.0,18.0,60,0.00,,,0.00,Wunderground v.1.15,2013-01-21 18:38:00,
2013-01-21 13:44:00,19.8,7.8,30.07,West,273,9.0,18.0,59,0.00,,,0.00,Wunderground v.1.15,2013-01-21 18:44:00,
2013-01-21 13:50:00,19.3,8.0,30.07,SW,225,12.0,18.0,61,0.00,,,0.00,Wunderground v.1.15,2013-01-21 18:50:00,
2013-01-21 13:56:00,19.4,8.5,30.07,SW,234,12.0,18.0,62,0.00,,,0.00,Wunderground v.1.15,2013-01-21 18:56:00,
2013-01-21 14:01:00,19.5,7.5,30.08,WSW,250,10.0,18.0,59,0.00,,,0.00,Wunderground v.1.15,2013-01-21 19:01:00,
2013-01-21 14:07:00,19.4,7.8,30.08,WNW,291,11.0,18.0,60,0.00,,,0.00,Wunderground v.1.15,2013-01-21 19:07:00,
2013-01-21 14:13:00,19.4,7.8,30.08,West,273,12.0,18.0,60,0.00,,,0.00,Wunderground v.1.15,2013-01-21 19:13:00,
2013-01-21 14:19:00,19.3,8.0,30.08,West,265,12.0,18.0,61,0.00,,,0.00,Wunderground v.1.15,2013-01-21 19:19:00,
2013-01-21 14:25:00,19.2,7.9,30.08,WSW,250,11.0,18.0,61,0.00,,,0.00,Wunderground v.1.15,2013-01-21 19:25:00,
2013-01-21 14:30:00,19.3,8.4,30.08,SW,231,11.0,18.0,62,0.00,,,0.00,Wunderground v.1.15,2013-01-21 19:30:00,
2013-01-21 14:36:00,19.4,11.2,30.08,WSW,241,10.0,18.0,70,0.00,,,0.00,Wunderground v.1.15,2013-01-21 19:36:00,
2013-01-21 14:42:00,19.5,8.9,30.08,WSW,240,11.0,18.0,63,0.00,,,0.00,Wunderground v.1.15,2013-01-21 19:42:00,
2013-01-21 14:47:00,19.8,9.2,30.08,WSW,257,10.0,18.0,63,0.00,,,0.00,Wunderground v.1.15,2013-01-21 19:47:00,
2013-01-21 14:53:00,20.0,9.8,30.07,SW,225,10.0,18.0,64,0.00,,,0.00,Wunderground v.1.15,2013-01-21 19:53:00,
2013-01-21 15:00:00,19.7,8.0,30.08,West,277,11.0,11.0,60,0.00,,,0.00,Wunderground v.1.15,2013-01-21 20:00:00,
2013-01-21 15:06:00,19.4,8.8,30.08,WSW,246,11.0,15.0,63,0.00,,,0.00,Wunderground v.1.15,2013-01-21 20:06:00,
2013-01-21 15:12:00,19.5,9.3,30.08,WSW,250,10.0,13.0,64,0.00,,,0.00,Wunderground v.1.15,2013-01-21 20:12:00,
2013-01-21 15:17:00,19.3,8.8,30.08,SW,225,10.0,16.0,63,0.00,,,0.00,Wunderground v.1.15,2013-01-21 20:17:00,
2013-01-21 15:23:00,19.0,8.5,30.08,SW,234,10.0,12.0,63,0.00,,,0.00,Wunderground v.1.15,2013-01-21 20:23:00,
2013-01-21 15:29:00,18.7,8.5,30.09,WSW,254,10.0,12.0,64,0.00,,,0.00,Wunderground v.1.15,2013-01-21 20:29:00,
2013-01-21 15:35:00,18.6,8.1,30.09,WSW,254,10.0,13.0,63,0.00,,,0.00,Wunderground v.1.15,2013-01-21 20:35:00,
2013-01-21 15:41:00,18.5,8.0,30.09,SW,225,10.0,13.0,63,0.00,,,0.00,Wunderground v.1.15,2013-01-21 20:41:00,
2013-01-21 15:46:00,18.4,9.6,30.10,West,262,11.0,17.0,68,0.00,,,0.00,Wunderground v.1.15,2013-01-21 20:46:00,
2013-01-21 15:52:00,18.2,8.7,30.10,WSW,253,12.0,17.0,66,0.00,,,0.00,Wunderground v.1.15,2013-01-21 20:52:00,
2013-01-21 15:58:00,17.9,9.4,30.11,WSW,256,11.0,17.0,69,0.00,,,0.00,Wunderground v.1.15,2013-01-21 20:58:00,
2013-01-21 16:05:00,16.7,11.3,30.11,WSW,257,12.0,21.0,79,0.00,,,0.00,Wunderground v.1.15,2013-01-21 21:05:00,
2013-01-21 16:11:00,16.0,11.5,30.11,WSW,254,11.0,21.0,82,0.00,,,0.00,Wunderground v.1.15,2013-01-21 21:11:00,
2013-01-21 16:16:00,15.8,11.3,30.12,WSW,240,8.0,21.0,82,0.00,,,0.00,Wunderground v.1.15,2013-01-21 21:16:00,
2013-01-21 16:22:00,15.9,10.5,30.11,South,191,9.0,21.0,79,0.00,,,0.00,Wunderground v.1.15,2013-01-21 21:22:00,
2013-01-21 16:28:00,16.4,10.4,30.12,WSW,238,8.0,21.0,77,0.00,,,0.00,Wunderground v.1.15,2013-01-21 21:28:00,
2013-01-21 16:34:00,16.6,9.4,30.11,SW,232,8.0,21.0,73,0.00,,,0.00,Wunderground v.1.15,2013-01-21 21:34:00,
2013-01-21 16:40:00,16.7,8.0,30.12,SSW,213,10.0,21.0,68,0.00,,,0.00,Wunderground v.1.15,2013-01-21 21:40:00,
2013-01-21 16:46:00,16.4,8.9,30.12,SW,225,13.0,21.0,72,0.00,,,0.00,Wunderground v.1.15,2013-01-21 21:46:00,
2013-01-21 16:51:00,16.5,8.1,30.12,WSW,243,11.0,21.0,69,0.00,,,0.00,Wunderground v.1.15,2013-01-21 21:51:00,
2013-01-21 16:57:00,16.6,7.2,30.12,WSW,244,9.0,21.0,66,0.00,,,0.00,Wunderground v.1.15,2013-01-21 21:57:00,
2013-01-21 17:03:00,16.4,6.7,30.13,West,275,9.0,21.0,65,0.00,,,0.00,Wunderground v.1.15,2013-01-21 22:03:00,
2013-01-21 17:09:00,16.2,7.2,30.13,SW,233,8.0,21.0,67,0.00,,,0.00,Wunderground v.1.15,2013-01-21 22:09:00,
2013-01-21 17:14:00,16.0,7.9,30.13,WSW,242,9.0,21.0,70,0.00,,,0.00,Wunderground v.1.15,2013-01-21 22:14:00,
2013-01-21 17:20:00,15.7,8.3,30.13,West,265,9.0,21.0,72,0.00,,,0.00,Wunderground v.1.15,2013-01-21 22:20:00,
2013-01-21 17:26:00,15.3,8.5,30.13,WSW,239,9.0,21.0,74,0.00,,,0.00,Wunderground v.1.15,2013-01-21 22:26:00,
2013-01-21 17:32:00,15.1,8.0,30.13,West,263,11.0,21.0,73,0.00,,,0.00,Wunderground v.1.15,2013-01-21 22:32:00,
2013-01-21 17:38:00,15.0,8.2,30.14,West,277,10.0,21.0,74,0.00,,,0.00,Wunderground v.1.15,2013-01-21 22:38:00,
2013-01-21 17:43:00,15.0,8.2,30.13,SW,225,9.0,21.0,74,0.00,,,0.00,Wunderground v.1.15,2013-01-21 22:43:00,
2013-01-21 17:49:00,15.0,7.6,30.13,WSW,248,8.0,21.0,72,0.00,,,0.00,Wunderground v.1.15,2013-01-21 22:49:00,
2013-01-21 17:55:00,14.9,7.5,30.14,West,262,9.0,21.0,72,0.00,,,0.00,Wunderground v.1.15,2013-01-21 22:55:00,
2013-01-21 18:00:00,14.8,8.0,30.14,WSW,257,10.0,14.0,74,0.00,,,0.00,Wunderground v.1.15,2013-01-21 23:00:00,
2013-01-21 18:06:00,14.4,8.2,30.14,West,269,13.0,18.0,76,0.00,,,0.00,Wunderground v.1.15,2013-01-21 23:06:00,
2013-01-21 18:11:00,14.3,8.7,30.14,WSW,241,12.0,13.0,78,0.00,,,0.00,Wunderground v.1.15,2013-01-21 23:11:00,
2013-01-21 18:16:00,14.0,9.2,30.15,WSW,242,11.0,14.0,81,0.00,,,0.00,Wunderground v.1.15,2013-01-21 23:16:00,
2013-01-21 18:21:00,13.8,9.6,30.15,SW,236,10.0,10.0,83,0.00,,,0.00,Wunderground v.1.15,2013-01-21 23:21:00,
2013-01-21 18:26:00,13.5,9.8,30.15,SW,221,8.0,11.0,85,0.00,,,0.00,Wunderground v.1.15,2013-01-21 23:26:00,
2013-01-21 18:31:00,13.4,10.0,30.14,WSW,242,7.0,14.0,86,0.00,,,0.00,Wunderground v.1.15,2013-01-21 23:31:00,
2013-01-21 18:36:00,13.3,10.2,30.14,WSW,237,7.0,14.0,87,0.00,,,0.00,Wunderground v.1.15,2013-01-21 23:36:00,
2013-01-21 18:41:00,13.3,10.2,30.15,West,268,7.0,9.0,87,0.00,,,0.00,Wunderground v.1.15,2013-01-21 23:41:00,
2013-01-21 18:46:00,13.2,10.3,30.15,West,263,7.0,10.0,88,0.00,,,0.00,Wunderground v.1.15,2013-01-21 23:46:00,
2013-01-21 18:51:00,13.1,10.2,30.15,SW,236,8.0,10.0,88,0.00,,,0.00,Wunderground v.1.15,2013-01-21 23:51:00,
2013-01-21 18:56:00,13.0,10.1,30.15,WSW,244,9.0,14.0,88,0.00,,,0.00,Wunderground v.1.15,2013-01-21 23:56:00,
2013-01-21 19:01:00,12.8,9.9,30.15,SSW,201,9.0,10.0,88,0.00,,,0.00,Wunderground v.1.15,2013-01-22 00:01:00,
2013-01-21 19:06:00,12.6,9.7,30.15,SW,224,10.0,21.0,88,0.00,,,0.00,Wunderground v.1.15,2013-01-22 00:06:00,
2013-01-21 19:11:00,12.5,9.6,30.15,WSW,238,8.0,9.0,88,0.00,,,0.00,Wunderground v.1.15,2013-01-22 00:11:00,
2013-01-21 19:16:00,12.5,9.9,30.15,WSW,238,6.0,21.0,89,0.00,,,0.00,Wunderground v.1.15,2013-01-22 00:16:00,
2013-01-21 19:21:00,12.5,9.9,30.15,SW,236,6.0,21.0,89,0.00,,,0.00,Wunderground v.1.15,2013-01-22 00:21:00,
2013-01-21 19:26:00,12.6,9.7,30.15,WSW,249,9.0,21.0,88,0.00,,,0.00,Wunderground v.1.15,2013-01-22 00:26:00,
2013-01-21 19:31:00,12.6,9.7,30.16,West,273,11.0,21.0,88,0.00,,,0.00,Wunderground v.1.15,2013-01-22 00:31:00,
2013-01-21 19:36:00,12.3,9.4,30.16,SW,235,11.0,21.0,88,0.00,,,0.00,Wunderground v.1.15,2013-01-22 00:36:00,
2013-01-21 19:41:00,12.2,9.6,30.16,SW,221,8.0,21.0,89,0.00,,,0.00,Wunderground v.1.15,2013-01-22 00:41:00,
2013-01-21 19:46:00,12.2,9.6,30.16,WSW,239,7.0,21.0,89,0.00,,,0.00,Wunderground v.1.15,2013-01-22 00:46:00,
2013-01-21 19:51:00,12.1,9.5,30.16,West,264,8.0,21.0,89,0.00,,,0.00,Wunderground v.1.15,2013-01-22 00:51:00,
2013-01-21 19:56:00,12.0,9.4,30.16,WSW,248,9.0,21.0,89,0.00,,,0.00,Wunderground v.1.15,2013-01-22 00:56:00,
2013-01-21 20:01:00,11.9,9.3,30.16,West,260,8.0,21.0,89,0.00,,,0.00,Wunderground v.1.15,2013-01-22 01:01:00,
2013-01-21 20:06:00,12.0,9.6,30.16,WSW,258,7.0,21.0,90,0.00,,,0.00,Wunderground v.1.15,2013-01-22 01:06:00,
2013-01-21 20:11:00,12.0,9.4,30.16,SW,225,7.0,21.0,89,0.00,,,0.00,Wunderground v.1.15,2013-01-22 01:11:00,
2013-01-21 20:16:00,12.0,9.4,30.16,SW,219,6.0,21.0,89,0.00,,,0.00,Wunderground v.1.15,2013-01-22 01:16:00,
2013-01-21 20:21:00,11.9,9.3,30.16,West,276,6.0,21.0,89,0.00,,,0.00,Wunderground v.1.15,2013-01-22 01:21:00,
2013-01-21 20:26:00,12.0,9.4,30.16,WSW,252,8.0,21.0,89,0.00,,,0.00,Wunderground v.1.15,2013-01-22 01:26:00,
2013-01-21 20:32:00,11.9,9.3,30.16,WSW,253,8.0,21.0,89,0.00,,,0.00,Wunderground v.1.15,2013-01-22 01:32:00,
2013-01-21 20:37:00,11.8,9.2,30.16,WSW,238,8.0,21.0,89,0.00,,,0.00,Wunderground v.1.15,2013-01-22 01:37:00,
2013-01-21 20:42:00,11.9,9.3,30.17,West,267,8.0,21.0,89,0.00,,,0.00,Wunderground v.1.15,2013-01-22 01:42:00,
2013-01-21 20:47:00,11.9,9.0,30.17,West,271,8.0,21.0,88,0.00,,,0.00,Wunderground v.1.15,2013-01-22 01:47:00,
2013-01-21 20:52:00,11.9,9.0,30.17,WSW,241,10.0,21.0,88,0.00,,,0.00,Wunderground v.1.15,2013-01-22 01:52:00,
2013-01-21 20:57:00,11.9,9.0,30.17,WSW,251,11.0,21.0,88,0.00,,,0.00,Wunderground v.1.15,2013-01-22 01:57:00,
2013-01-21 21:03:00,11.7,8.8,30.17,SW,221,10.0,11.0,88,0.00,,,0.00,Wunderground v.1.15,2013-01-22 02:03:00,
2013-01-21 21:08:00,11.7,8.6,30.17,WSW,241,9.0,13.0,87,0.00,,,0.00,Wunderground v.1.15,2013-01-22 02:08:00,
2013-01-21 21:14:00,11.6,8.7,30.18,SW,232,10.0,10.0,88,0.00,,,0.00,Wunderground v.1.15,2013-01-22 02:14:00,
2013-01-21 21:20:00,11.5,8.4,30.18,SSW,213,10.0,10.0,87,0.00,,,0.00,Wunderground v.1.15,2013-01-22 02:20:00,
2013-01-21 21:26:00,11.4,8.3,30.18,WSW,246,9.0,13.0,87,0.00,,,0.00,Wunderground v.1.15,2013-01-22 02:26:00,
2013-01-21 21:31:00,11.5,8.4,30.18,WSW,250,9.0,11.0,87,0.00,,,0.00,Wunderground v.1.15,2013-01-22 02:31:00,
2013-01-21 21:36:00,11.5,8.4,30.18,West,280,9.0,13.0,87,0.00,,,0.00,Wunderground v.1.15,2013-01-22 02:36:00,
2013-01-21 21:42:00,11.4,8.3,30.19,West,261,8.0,9.0,87,0.00,,,0.00,Wunderground v.1.15,2013-01-22 02:42:00,
2013-01-21 21:48:00,11.2,8.3,30.19,West,263,8.0,14.0,88,0.00,,,0.00,Wunderground v.1.15,2013-01-22 02:48:00,
2013-01-21 21:53:00,10.9,8.0,30.19,WSW,239,8.0,10.0,88,0.00,,,0.00,Wunderground v.1.15,2013-01-22 02:53:00,
2013-01-21 21:59:00,10.7,8.1,30.19,SW,227,7.0,13.0,89,0.00,,,0.00,Wunderground v.1.15,2013-01-22 02:59:00,
2013-01-21 22:05:00,10.7,8.1,30.19,West,265,7.0,20.0,89,0.00,,,0.00,Wunderground v.1.15,2013-01-22 03:05:00,
2013-01-21 22:11:00,10.9,8.3,30.19,West,268,9.0,20.0,89,0.00,,,0.00,Wunderground v.1.15,2013-01-22 03:11:00,
2013-01-21 22:17:00,11.0,8.4,30.19,SW,232,9.0,20.0,89,0.00,,,0.00,Wunderground v.1.15,2013-01-22 03:17:00,
2013-01-21 22:23:00,10.7,8.1,30.19,West,267,9.0,20.0,89,0.00,,,0.00,Wunderground v.1.15,2013-01-22 03:23:00,
2013-01-21 22:28:00,10.3,7.7,30.19,SSW,213,9.0,20.0,89,0.00,,,0.00,Wunderground v.1.15,2013-01-22 03:28:00,
2013-01-21 22:34:00,10.1,7.5,30.19,West,267,8.0,20.0,89,0.00,,,0.00,Wunderground v.1.15,2013-01-22 03:34:00,
2013-01-21 22:40:00,10.0,7.2,30.19,West,261,9.0,9.0,88,0.00,,,0.00,Wunderground v.1.15,2013-01-22 03:40:00,
2013-01-21 22:46:00,9.9,7.1,30.19,SW,223,9.0,20.0,88,0.00,,,0.00,Wunderground v.1.15,2013-01-22 03:46:00,
2013-01-21 22:51:00,9.9,6.8,30.20,WSW,246,10.0,20.0,87,0.00,,,0.00,Wunderground v.1.15,2013-01-22 03:51:00,
2013-01-21 22:57:00,9.8,6.7,30.21,West,261,9.0,20.0,87,0.00,,,0.00,Wunderground v.1.15,2013-01-22 03:57:00,
2013-01-21 23:02:00,9.5,6.4,30.20,SW,235,9.0,20.0,87,0.00,,,0.00,Wunderground v.1.15,2013-01-22 04:02:00,
2013-01-21 23:07:00,9.4,6.3,30.21,WSW,247,11.0,20.0,87,0.00,,,0.00,Wunderground v.1.15,2013-01-22 04:07:00,
2013-01-21 23:12:00,9.0,5.9,30.20,SW,236,12.0,20.0,87,0.00,,,0.00,Wunderground v.1.15,2013-01-22 04:12:00,
2013-01-21 23:17:00,8.9,6.1,30.20,WSW,238,10.0,20.0,88,0.00,,,0.00,Wunderground v.1.15,2013-01-22 04:17:00,
2013-01-21 23:22:00,8.9,6.1,30.21,West,261,8.0,20.0,88,0.00,,,0.00,Wunderground v.1.15,2013-01-22 04:22:00,
2013-01-21 23:27:00,8.8,6.0,30.21,SSW,208,9.0,20.0,88,0.00,,,0.00,Wunderground v.1.15,2013-01-22 04:27:00,
2013-01-21 23:32:00,8.5,5.7,30.21,WSW,247,9.0,20.0,88,0.00,,,0.00,Wunderground v.1.15,2013-01-22 04:32:00,
2013-01-21 23:37:00,8.5,5.7,30.21,WSW,258,7.0,20.0,88,0.00,,,0.00,Wunderground v.1.15,2013-01-22 04:37:00,
2013-01-21 23:43:00,8.4,5.6,30.20,WSW,252,6.0,20.0,88,0.00,,,0.00,Wunderground v.1.15,2013-01-22 04:43:00,
2013-01-21 23:48:00,8.3,5.7,30.21,West,264,6.0,20.0,89,0.00,,,0.00,Wunderground v.1.15,2013-01-22 04:48:00,
2013-01-21 23:53:00,8.4,5.8,30.21,West,280,6.0,20.0,89,0.00,,,0.00,Wunderground v.1.15,2013-01-22 04:53:00,
2013-01-21 23:59:00,8.4,5.8,30.21,WSW,251,5.0,20.0,89,0.00,,,0.00,Wunderground v.1.15,2013-01-22 04:59:00,